Stündliche Wetter Dabhoi

Heute, 20 Oktober, Dienstag

Zeit Temperatur Niederschläge Wind Luftdruck Luftfeuchtigkeit
00:00 +29°C° 0.8 mm 1 m/S 752 mmHg 78%
01:00 +29°C° 0.8 mm 1 m/S 751 mmHg 81%
02:00 +28°C° 0.8 mm 1 m/S 751 mmHg 85%
03:00 +28°C° 0.1 mm 1 m/S 751 mmHg 86%
04:00 +28°C° 0.1 mm 1 m/S 751 mmHg 87%
05:00 +28°C° 0 mm 1 m/S 751 mmHg 89%
06:00 +28°C° 0 mm 1 m/S 751 mmHg 87%
07:00 +29°C° 0 mm 1 m/S 752 mmHg 84%
08:00 +30°C° 0 mm 1 m/S 752 mmHg 81%
09:00 +31°C° 0.3 mm 1 m/S 752 mmHg 75%
10:00 +32°C° 0.3 mm 1 m/S 752 mmHg 69%
11:00 +34°C° 0.3 mm 1 m/S 752 mmHg 63%
12:00 +34°C° 0.5 mm 1 m/S 751 mmHg 60%
13:00 +35°C° 0.5 mm 1 m/S 750 mmHg 56%
14:00 +36°C° 0.5 mm 1 m/S 749 mmHg 53%
15:00 +35°C° 0 mm 1 m/S 749 mmHg 56%
16:00 +35°C° 0 mm 1 m/S 749 mmHg 59%
17:00 +32°C° 0 mm 0 m/S 749 mmHg 63%
18:00 +33°C° 0.4 mm 1 m/S 750 mmHg 65%
19:00 +32°C° 0.4 mm 1 m/S 751 mmHg 67%
20:00 +31°C° 0.4 mm 1 m/S 752 mmHg 69%
21:00 +31°C° 1 mm 2 m/S 752 mmHg 74%
22:00 +30°C° 1 mm 2 m/S 752 mmHg 78%
23:00 +29°C° 1 mm 2 m/S 752 mmHg 82%

Morgen, 21 Oktober, Mittwoch

Zeit Temperatur Niederschläge Wind Luftdruck Luftfeuchtigkeit
00:00 +29°C° 0.3 mm 1 m/S 751 mmHg 82%
01:00 +29°C° 0.3 mm 1 m/S 751 mmHg 83%
02:00 +29°C° 0.3 mm 1 m/S 751 mmHg 83%
03:00 +29°C° 0.4 mm 1 m/S 751 mmHg 83%
04:00 +28°C° 0.4 mm 1 m/S 751 mmHg 84%
05:00 +28°C° 0.4 mm 1 m/S 751 mmHg 84%
06:00 +27°C° 0.5 mm 0 m/S 751 mmHg 81%
07:00 +28°C° 0.5 mm 0 m/S 752 mmHg 78%
08:00 +29°C° 0.5 mm 0 m/S 753 mmHg 75%
09:00 +30°C° 0 mm 0 m/S 753 mmHg 69%
10:00 +33°C° 0 mm 1 m/S 752 mmHg 64%
11:00 +34°C° 0 mm 1 m/S 752 mmHg 58%
12:00 +35°C° 0 mm 1 m/S 751 mmHg 56%
13:00 +36°C° 0 mm 1 m/S 751 mmHg 53%
14:00 +36°C° 0 mm 1 m/S 750 mmHg 51%
15:00 +36°C° 0 mm 1 m/S 750 mmHg 54%
16:00 +35°C° 0 mm 1 m/S 750 mmHg 57%
17:00 +34°C° 0 mm 1 m/S 749 mmHg 61%
18:00 +33°C° 0 mm 1 m/S 750 mmHg 61%
19:00 +33°C° 0 mm 1 m/S 751 mmHg 62%
20:00 +32°C° 0 mm 1 m/S 751 mmHg 62%
21:00 +32°C° 0 mm 1 m/S 751 mmHg 63%
22:00 +31°C° 0 mm 1 m/S 751 mmHg 65%
23:00 +31°C° 0 mm 1 m/S 751 mmHg 66%

übermorgen, 22 Oktober, Donnerstag

Zeit Temperatur Niederschläge Wind Luftdruck Luftfeuchtigkeit
00:00 +30°C° 0.2 mm 1 m/S 751 mmHg 70%
01:00 +29°C° 0.2 mm 1 m/S 750 mmHg 74%
02:00 +29°C° 0.2 mm 1 m/S 750 mmHg 77%
03:00 +28°C° 0.1 mm 1 m/S 750 mmHg 78%
04:00 +28°C° 0.1 mm 1 m/S 750 mmHg 79%
05:00 +28°C° 0.1 mm 1 m/S 750 mmHg 80%
06:00 +29°C° 0 mm 1 m/S 751 mmHg 78%
07:00 +30°C° 0 mm 1 m/S 751 mmHg 76%
08:00 +30°C° 0 mm 1 m/S 752 mmHg 73%
09:00 +32°C° 0 mm 1 m/S 752 mmHg 67%
10:00 +33°C° 0 mm 1 m/S 752 mmHg 60%
11:00 +33°C° 0 mm 0 m/S 752 mmHg 54%
12:00 +36°C° 0 mm 1 m/S 751 mmHg 51%
13:00 +36°C° 0 mm 1 m/S 750 mmHg 47%
14:00 +37°C° 0 mm 1 m/S 749 mmHg 44%
15:00 +36°C° 0 mm 1 m/S 749 mmHg 48%
16:00 +35°C° 0 mm 1 m/S 749 mmHg 52%
17:00 +34°C° 0 mm 1 m/S 749 mmHg 56%
18:00 +33°C° 0 mm 1 m/S 750 mmHg 56%
19:00 +32°C° 0 mm 1 m/S 750 mmHg 57%
20:00 +32°C° 0 mm 1 m/S 751 mmHg 57%
21:00 +31°C° 0 mm 1 m/S 751 mmHg 57%
22:00 +31°C° 0 mm 1 m/S 751 mmHg 57%
23:00 +29°C° 0 mm 0 m/S 751 mmHg 58%

23 Oktober, Freitag

Zeit Temperatur Niederschläge Wind Luftdruck Luftfeuchtigkeit
00:00 +30°C° 0 mm 1 m/S 751 mmHg 60%
01:00 +30°C° 0 mm 1 m/S 751 mmHg 63%
02:00 +29°C° 0 mm 2 m/S 750 mmHg 65%
03:00 +29°C° 0 mm 1 m/S 750 mmHg 66%
04:00 +28°C° 0 mm 1 m/S 750 mmHg 68%
05:00 +28°C° 0 mm 1 m/S 750 mmHg 69%
06:00 +29°C° 0 mm 1 m/S 751 mmHg 67%
07:00 +30°C° 0 mm 1 m/S 751 mmHg 66%
08:00 +31°C° 0 mm 1 m/S 752 mmHg 64%
09:00 +32°C° 0 mm 1 m/S 752 mmHg 59%
10:00 +34°C° 0 mm 1 m/S 752 mmHg 54%
11:00 +35°C° 0 mm 1 m/S 752 mmHg 49%
12:00 +36°C° 0 mm 1 m/S 751 mmHg 44%
13:00 +36°C° 0 mm 1 m/S 751 mmHg 40%
14:00 +35°C° 0 mm 0 m/S 750 mmHg 35%
15:00 +36°C° 0 mm 1 m/S 750 mmHg 39%
16:00 +35°C° 0 mm 1 m/S 750 mmHg 43%
17:00 +34°C° 0 mm 1 m/S 750 mmHg 47%
18:00 +33°C° 0 mm 1 m/S 750 mmHg 48%
19:00 +32°C° 0 mm 1 m/S 751 mmHg 49%
20:00 +31°C° 0 mm 1 m/S 751 mmHg 50%
21:00 +31°C° 0 mm 1 m/S 752 mmHg 53%
22:00 +31°C° 0 mm 1 m/S 752 mmHg 55%
23:00 +30°C° 0 mm 1 m/S 752 mmHg 57%

24 Oktober, Samstag

Zeit Temperatur Niederschläge Wind Luftdruck Luftfeuchtigkeit
00:00 +30°C° 0 mm 1 m/S 752 mmHg 58%
01:00 +30°C° 0 mm 1 m/S 751 mmHg 59%
02:00 +29°C° 0 mm 1 m/S 751 mmHg 60%
03:00 +29°C° 0 mm 1 m/S 751 mmHg 62%
04:00 +26°C° 0 mm 0 m/S 751 mmHg 63%
05:00 +26°C° 0 mm 0 m/S 751 mmHg 65%
06:00 +27°C° 0 mm 0 m/S 751 mmHg 64%
07:00 +30°C° 0 mm 1 m/S 752 mmHg 62%
08:00 +30°C° 0 mm 1 m/S 752 mmHg 61%
09:00 +32°C° 0 mm 1 m/S 752 mmHg 56%
10:00 +33°C° 0 mm 1 m/S 752 mmHg 52%
11:00 +35°C° 0 mm 1 m/S 753 mmHg 47%
12:00 +35°C° 0 mm 1 m/S 752 mmHg 43%
13:00 +36°C° 0 mm 1 m/S 751 mmHg 39%
14:00 +36°C° 0 mm 1 m/S 751 mmHg 35%
15:00 +35°C° 0 mm 1 m/S 751 mmHg 41%
16:00 +35°C° 0 mm 2 m/S 751 mmHg 47%
17:00 +34°C° 0 mm 2 m/S 751 mmHg 52%
18:00 +32°C° 0 mm 2 m/S 751 mmHg 52%
19:00 +31°C° 0 mm 1 m/S 752 mmHg 52%
20:00 +31°C° 0 mm 1 m/S 752 mmHg 52%
21:00 +30°C° 0 mm 1 m/S 752 mmHg 53%
22:00 +30°C° 0 mm 1 m/S 753 mmHg 54%
23:00 +29°C° 0 mm 1 m/S 753 mmHg 55%

25 Oktober, Sonntag

Zeit Temperatur Niederschläge Wind Luftdruck Luftfeuchtigkeit
00:00 +29°C° 0 mm 1 m/S 752 mmHg 56%
01:00 +29°C° 0 mm 1 m/S 752 mmHg 58%
02:00 +28°C° 0 mm 1 m/S 752 mmHg 59%
03:00 +28°C° 0 mm 1 m/S 752 mmHg 60%
04:00 +28°C° 0 mm 1 m/S 752 mmHg 62%
05:00 +26°C° 0 mm 0 m/S 752 mmHg 63%
06:00 +26°C° 0 mm 0 m/S 753 mmHg 63%
07:00 +29°C° 0 mm 1 m/S 753 mmHg 63%
08:00 +30°C° 0 mm 1 m/S 754 mmHg 62%
09:00 +31°C° 0 mm 1 m/S 754 mmHg 58%
10:00 +32°C° 0 mm 1 m/S 754 mmHg 54%
11:00 +34°C° 0 mm 1 m/S 754 mmHg 49%
12:00 +34°C° 0 mm 1 m/S 753 mmHg 46%
13:00 +36°C° 0 mm 2 m/S 752 mmHg 43%
14:00 +36°C° 0 mm 2 m/S 752 mmHg 40%
15:00 +35°C° 0 mm 2 m/S 752 mmHg 44%
16:00 +33°C° 0 mm 1 m/S 752 mmHg 48%
17:00 +32°C° 0 mm 1 m/S 752 mmHg 51%
18:00 +32°C° 0 mm 1 m/S 752 mmHg 51%
19:00 +31°C° 0 mm 1 m/S 753 mmHg 52%
20:00 +30°C° 0 mm 1 m/S 753 mmHg 52%
21:00 +29°C° 0 mm 1 m/S 753 mmHg 54%
22:00 +29°C° 0 mm 1 m/S 753 mmHg 56%
23:00 +28°C° 0 mm 1 m/S 754 mmHg 58%

26 Oktober, Montag

Zeit Temperatur Niederschläge Wind Luftdruck Luftfeuchtigkeit
00:00 +28°C° 0 mm 1 m/S 753 mmHg 60%
01:00 +28°C° 0 mm 1 m/S 753 mmHg 61%
02:00 +27°C° 0 mm 1 m/S 753 mmHg 63%
03:00 +27°C° 0 mm 1 m/S 753 mmHg 65%
04:00 +27°C° 0 mm 1 m/S 753 mmHg 68%
05:00 +26°C° 0 mm 1 m/S 753 mmHg 70%
06:00 +27°C° 0 mm 1 m/S 754 mmHg 68%
07:00 +28°C° 0 mm 1 m/S 755 mmHg 66%
08:00 +29°C° 0 mm 1 m/S 755 mmHg 64%
09:00 +30°C° 0 mm 1 m/S 755 mmHg 59%
10:00 +32°C° 0 mm 1 m/S 755 mmHg 54%
11:00 +33°C° 0 mm 1 m/S 755 mmHg 48%
12:00 +34°C° 0 mm 1 m/S 754 mmHg 45%
13:00 +35°C° 0 mm 1 m/S 753 mmHg 41%
14:00 +35°C° 0 mm 1 m/S 753 mmHg 37%
15:00 +34°C° 0 mm 1 m/S 753 mmHg 41%
16:00 +33°C° 0 mm 1 m/S 753 mmHg 46%
17:00 +32°C° 0 mm 2 m/S 753 mmHg 50%
18:00 +31°C° 0 mm 2 m/S 753 mmHg 50%
19:00 +31°C° 0 mm 2 m/S 754 mmHg 50%
20:00 +30°C° 0 mm 2 m/S 754 mmHg 50%
21:00 +30°C° 0 mm 3 m/S 755 mmHg 52%
22:00 +29°C° 0 mm 3 m/S 755 mmHg 53%
23:00 +29°C° 0 mm 3 m/S 755 mmHg 55%
Mehr zeigen

Wir brauchen deine Erlaubnis

Meteoprog und unser Service Anbieter werden persönliche Daten aufbewahren, so wie Cookies, Geräte Bezeichnung oder ähnliche Technologien von deinem Gerät und Prozess, so wie Persönliche Daten Inhalte und Werbungen, genauso wie social Media und den Verkehr zu analysieren.

  • Aufbewahrung und/oder Zugang zu deiner Geräte Informationen.

    Cookies, Geräte Bezeichnung oder andere Informationen, können aufbewahrt oder Zugang zu deinem Gerät erhalten, für den Grund, der oben angegeben wird.

  • Personalisierte Werbung und Inhalte, Messungen, Einblick in das Publikum und Produkt Entwicklung.

    Werbungen und Inhalte können personalisiert werden, basierend auf ein Profil. Mehr Daten können besser personalisierte Werbungen und Inhalte hinzufügen. Werbung und Inhalte können gezeigt und gemessen werden. Einblicke über das Publikum, welche die Werbung gesehen haben und den Inhalt, können abgeleitet werden. So wie Daten können genutzt werden, um es zu verbessern oder die Benutzer Erfahrung zu verbessern das System und die Software.

Wenn du “Ich stimme zu” klickst, erlaubst du uns, die Cookies zu benutzen die Geräte Bezeichnung, den Web oder ähnliche Technologien zu benutzen. Deine Settings, können in deinem Gerät bei deinem Browser geändert werden.

Für den bestimmten Zweck, berechtigten Interessen beruhen darauf, mehr als auf den Inhalt. Du kannst mehr darüber in unseren Privaten und Cookie Politik lesen.